CAPE
0 0 0 0 0 0 0 0 0 4 60 66 168 226 192 114 163 83 1020 1124 1179 1423 2036 1695 1124 966 947 801 637 562 552 584 601 591 575 606 671 820 857 880 840 823 788 711 601 490 440 489 847
0 0 0 0 0 0 0 0 0 0 451 636 433 302 39 0 9 1047 1223 1331 1164 1604 2039 1890 1271 1165 1068 1064 1065 987 902 833 725 605 495 463 657 808 852 844 808 825 782 760 601 424 266 184 385
0 0 0 0 0 0 0 0 0 129 635 763 532 1006 550 0 390 1272 1341 1432 1331 1517 1882 1856 1416 1297 1262 1238 1161 1064 888 703 590 547 577 620 671 788 986 858 867 832 733 673 397 259 75 8 64
0 0 0 0 0 0 0 0 0 450 476 1028 1225 936 1332 1551 1003 1441 1516 1645 1546 1396 1767 1624 1420 1290 1134 1083 1101 918 753 618 483 428 552 753 1059 1369 858 678 837 836 666 559 194 67 39 0 19
0 0 0 0 0 0 0 0 0 542 0 926 732 532 1095 1889 1324 1459 1582 1699 1469 1432 1816 1829 1518 1431 1345 1299 1194 967 780 652 560 540 637 992 1457 1233 774 584 663 728 628 201 0 0 57 150 132
0 0 0 0 0 0 0 0 0 99 15 580 409 677 824 1740 1727 1475 1621 1635 1428 1293 1695 1850 1750 1689 1598 1545 1356 1087 898 774 692 750 1012 1231 1165 921 670 503 450 478 267 1 0 0 0 236 574
0 0 0 0 0 0 0 0 0 0 71 150 596 362 543 1760 1652 1488 1456 1405 1197 1284 1391 1557 1775 1993 1798 1668 1440 1193 1005 879 811 926 1128 1014 791 593 433 319 286 187 26 0 0 0 0 158 641
0 0 0 0 0 0 0 0 0 0 14 37 139 87 107 1364 1542 1287 1207 1138 1095 1182 1245 1440 1588 1957 2051 1943 1496 1266 1114 962 942 1022 980 692 465 372 275 146 72 32 0 0 0 0 0 0 291
0 0 0 0 0 0 0 0 0 0 20 74 466 454 352 1485 1437 1258 989 813 825 890 1008 1266 1513 1670 1774 1900 1744 1383 1209 1001 957 1048 848 508 730 527 323 55 0 0 0 0 0 0 0 0 65
0 0 0 0 0 0 0 0 0 0 0 0 4 602 884 1485 1471 1057 965 863 839 747 784 1034 1243 1386 1475 1494 1734 1715 1600 1418 1270 1323 1246 939 676 469 235 68 0 0 0 0 0 0 0 0 0
0 0 0 0 0 0 0 0 0 0 0 0 0 1 598 1446 1598 1214 1023 981 841 802 693 687 841 956 1151 1216 1331 1456 1425 1335 1220 1083 1017 819 520 352 248 167 45 0 0 0 0 0 0 0 0
0 0 0 0 0 0 0 0 0 0 0 0 0 12 425 886 1198 1315 1158 937 836 799 721 653 635 694 943 949 979 951 896 838 888 967 825 625 502 362 260 210 86 13 0 0 0 0 0 0 0
0 0 0 0 0 0 0 0 0 0 0 0 0 0 47 499 1168 1456 1319 1155 1021 780 840 841 747 672 769 772 703 699 633 637 576 697 670 584 518 437 340 151 10 0 0 0 0 0 0 0 0
0 0 0 0 0 0 0 0 0 0 0 0 0 0 11 146 631 1255 1233 1109 957 960 874 889 840 779 843 698 629 620 527 448 434 436 609 517 597 546 408 339 108 5 0 0 0 0 0 0 0
0 0 0 0 0 0 0 0 0 0 0 0 0 0 78 374 822 682 1121 1092 1075 929 962 965 1026 892 853 811 672 448 500 470 437 351 450 592 625 643 567 497 259 35 0 0 0 0 0 0 0
0 0 0 0 0 0 0 0 0 0 0 0 0 0 0 55 445 963 1239 1137 1126 1057 922 1001 990 868 901 791 580 445 400 403 456 282 436 481 587 706 718 630 433 103 7 13 0 0 0 0 0
0 0 0 0 0 0 0 0 0 0 0 0 0 0 0 2 431 752 1141 1135 1073 1162 998 957 1020 921 923 711 514 429 390 506 487 465 520 554 584 423 456 388 257 37 17 2 0 0 0 0 0
0 0 0 0 0 0 0 0 0 0 0 0 0 0 0 0 0 194 465 872 1181 1175 1134 1035 1027 1005 964 603 448 370 444 537 488 456 453 583 569 419 301 282 386 92 33 6 0 0 0 1 0
0 0 0 0 0 0 0 0 0 0 0 0 0 0 0 0 0 0 0 0 0 708 1023 1028 971 878 698 526 481 496 599 492 483 376 477 559 376 343 320 239 206 135 98 62 29 7 0 0 2
0 0 0 0 0 0 0 0 0 0 0 0 0 0 0 0 0 0 0 0 0 11 470 869 892 591 604 595 584 520 469 506 762 557 343 104 68 99 94 76 62 44 6 0 4 3 5 2 2
0 0 0 0 0 0 0 0 0 0 0 0 0 0 0 0 0 0 0 0 31 104 243 618 646 453 563 451 131 85 10 3 36 34 40 7 22 32 43 33 4 2 3 3 9 22 37 11 1
0 0 0 0 0 0 0 0 0 0 0 0 0 0 0 0 0 0 0 0 57 112 293 430 360 431 330 316 577 612 246 28 0 0 0 0 0 0 0 0 0 0 0 1 1 3 7 27 9
0 0 0 0 0 0 0 0 0 0 0 0 0 0 0 0 0 0 0 0 5 50 178 238 357 462 298 488 567 146 3 0 0 0 0 0 0 0 0 0 0 0 0 0 1 3 1 2 10
0 0 0 0 0 0 0 0 0 0 0 0 0 0 0 0 0 0 0 0 0 22 162 311 469 389 125 130 23 0 0 0 0 0 0 0 0 0 0 0 0 0 0 0 0 2 4 3 2
0 0 0 0 0 0 0 0 0 0 0 0 0 0 0 0 0 0 0 0 2 140 296 381 458 245 16 0 0 0 0 0 0 0 0 0 0 0 0 0 0 0 0 0 0 1 2 3 1
0 0 0 0 0 0 0 0 0 0 0 0 0 0 0 0 0 0 0 7 108 220 215 178 136 0 0 0 0 0 0 0 0 0 0 0 0 0 0 0 0 0 0 0 0 1 3 3 2
0 0 0 0 0 0 0 0 0 0 0 0 0 0 0 0 0 0 0 0 0 0 0 0 0 0 0 0 0 0 0 0 0 0 0 0 0 0 0 0 0 0 0 0 0 0 2 1 2
0 0 0 0 0 0 0 0 0 0 0 0 0 0 0 0 0 0 0 0 0 0 0 0 0 0 0 0 0 0 0 0 0 0 0 0 0 0 0 0 0 0 0 0 0 0 1 0 1
0 0 0 0 0 0 0 0 0 0 0 0 0 0 0 0 0 0 0 0 0 0 0 0 0 0 0 0 0 0 0 0 0 0 0 0 0 0 0 0 0 0 0 0 0 1 1 0 0
0 0 0 0 0 0 0 0 0 0 0 0 0 0 0 0 0 0 0 0 0 0 0 0 0 0 0 0 0 0 0 0 0 0 0 0 0 0 0 0 0 0 0 0 1 2 1 2 1
CIN
-0 -0 -0 -0 -0 -0 -0 -0 -0 -198 -167 -200 -226 -168 -137 -213 -118 -70 -426 -400 -369 -287 -143 -165 -241 -243 -232 -239 -267 -270 -264 -254 -252 -254 -258 -227 -213 -166 -147 -121 -110 -110 -129 -146 -173 -191 -200 -166 -97
-0 -0 -0 -0 -0 -0 -0 -0 -0 -0 -156 -172 -170 -172 -189 -0 -157 -277 -279 -363 -362 -240 -113 -101 -184 -169 -161 -138 -130 -146 -162 -186 -217 -239 -258 -273 -217 -151 -137 -140 -131 -146 -155 -143 -180 -208 -235 -254 -201
-0 -0 -0 -0 -0 -0 -0 -0 -0 -185 -151 -108 -102 -142 -129 -0 -281 -226 -352 -352 -339 -258 -140 -93 -145 -119 -97 -94 -99 -124 -167 -211 -224 -238 -247 -235 -208 -168 -116 -117 -114 -153 -146 -177 -260 -288 -367 -395 -329
-0 -0 -0 -0 -0 -0 -0 -0 -0 -107 -131 -101 -82 -35 -174 -269 -222 -281 -349 -328 -307 -312 -204 -176 -173 -169 -171 -164 -147 -173 -206 -231 -245 -245 -230 -193 -119 -49 -122 -143 -120 -110 -144 -169 -284 -362 -389 -0 -384
-0 -0 -0 -0 -0 -0 -0 -0 -0 -63 -0 -64 -79 -55 -101 -212 -325 -335 -316 -302 -293 -309 -213 -166 -171 -146 -140 -140 -149 -168 -196 -219 -235 -238 -221 -147 -52 -69 -127 -144 -114 -92 -109 -274 -153 -0 -353 -272 -279
-0 -0 -0 -0 -0 -0 -0 -0 -0 -134 -43 -90 -69 -61 -92 -290 -269 -329 -327 -301 -330 -310 -195 -128 -104 -103 -112 -114 -129 -171 -198 -207 -213 -196 -143 -102 -95 -111 -130 -152 -147 -135 -203 -142 -0 -0 -0 -252 -149
-0 -0 -0 -0 -0 -0 -0 -0 -0 -0 -112 -95 -88 -35 -153 -227 -305 -343 -336 -339 -337 -273 -220 -166 -96 -32 -39 -69 -113 -147 -165 -180 -174 -152 -105 -117 -143 -169 -189 -212 -212 -207 -330 -0 -0 -0 -0 -244 -114
-0 -0 -0 -0 -0 -0 -0 -0 -0 -0 -81 -290 -195 -84 -90 -207 -342 -375 -364 -326 -313 -262 -227 -179 -133 -55 -37 -43 -99 -124 -122 -145 -147 -134 -127 -171 -204 -215 -231 -268 -299 -307 -0 -0 -0 -0 -0 -0 -180
-0 -0 -0 -0 -0 -0 -0 -0 -0 -0 -200 -132 -137 -120 -223 -315 -368 -358 -373 -384 -364 -341 -298 -233 -163 -129 -87 -55 -59 -88 -91 -122 -133 -109 -126 -193 -129 -151 -185 -299 -0 -0 -0 -0 -0 -0 -0 -0 -214
-0 -0 -0 -0 -0 -0 -0 -0 -0 -0 -0 -0 -127 -221 -338 -341 -337 -343 -361 -365 -391 -411 -381 -287 -218 -171 -137 -118 -71 -52 -53 -64 -73 -49 -52 -91 -127 -135 -166 -276 -0 -0 -0 -0 -0 -0 -0 -0 -0
-0 -0 -0 -0 -0 -0 -0 -0 -0 -0 -0 -0 -0 -106 -249 -313 -301 -327 -357 -376 -394 -400 -406 -383 -302 -254 -204 -172 -124 -90 -74 -68 -68 -80 -79 -97 -146 -161 -166 -189 -242 -0 -0 -0 -0 -0 -0 -0 -0
-0 -0 -0 -0 -0 -0 -0 -0 -0 -0 -0 -0 -0 -106 -242 -216 -217 -247 -313 -377 -409 -434 -419 -411 -399 -367 -262 -231 -190 -156 -137 -132 -107 -82 -97 -128 -155 -178 -191 -204 -251 -300 -0 -0 -0 -0 -0 -0 -0
-0 -0 -0 -0 -0 -0 -0 -0 -0 -0 -0 -0 -0 -86 -343 -187 -198 -282 -301 -335 -374 -401 -392 -355 -355 -361 -309 -269 -246 -202 -190 -160 -143 -107 -124 -145 -150 -162 -177 -217 -293 -37 -0 -0 -0 -0 -0 -0 -0
-0 -0 -0 -0 -0 -0 -0 -0 -0 -0 -0 -0 -0 -0 -376 -264 -176 -239 -282 -289 -354 -342 -368 -346 -337 -324 -254 -261 -229 -183 -163 -160 -163 -169 -138 -151 -125 -124 -146 -145 -186 -131 -0 -0 -0 -0 -0 -0 -0
-0 -0 -0 -0 -0 -0 -0 -0 -0 -0 -0 -0 -0 -0 -342 -269 -242 -169 -184 -226 -302 -331 -330 -324 -284 -271 -252 -221 -212 -235 -200 -176 -162 -181 -143 -116 -99 -86 -79 -84 -131 -197 -0 -0 -0 -0 -0 -0 -0
-0 -0 -0 -0 -0 -0 -0 -0 -0 -0 -0 -0 -0 -0 -0 -346 -257 -236 -223 -256 -303 -306 -328 -317 -304 -275 -236 -235 -252 -254 -217 -183 -144 -184 -126 -85 -61 -25 -13 -16 -47 -149 -227 -230 -0 -0 -0 -0 -0
-0 -0 -0 -0 -0 -0 -0 -0 -0 -0 -0 -0 -0 -0 -0 -197 -315 -268 -267 -282 -307 -297 -308 -320 -304 -294 -250 -240 -230 -220 -197 -139 -116 -86 -77 -58 -46 -70 -46 -47 -58 -126 -167 -151 -0 -0 -0 -0 -0
-0 -0 -0 -0 -0 -0 -0 -0 -0 -0 -0 -0 -0 -0 -0 -0 -14 -354 -343 -308 -296 -306 -311 -305 -308 -287 -226 -227 -218 -199 -151 -102 -92 -83 -80 -42 -40 -53 -80 -75 -38 -80 -114 -102 -0 -0 -0 -0 -0
-0 -0 -0 -0 -0 -0 -0 -0 -0 -0 -0 -0 -0 -0 -0 -0 -0 -0 -0 -0 -0 -428 -344 -327 -312 -284 -262 -248 -188 -131 -98 -95 -59 -59 -48 -33 -43 -44 -57 -75 -62 -35 -40 -53 -53 -74 -0 -0 -0
-0 -0 -0 -0 -0 -0 -0 -0 -0 -0 -0 -0 -0 -0 -0 -0 -0 -0 -0 -0 -41 -450 -501 -341 -289 -317 -250 -210 -171 -144 -107 -70 -20 -35 -51 -134 -115 -214 -106 -109 -105 -83 -56 -0 -15 -0 -27 -5 -0
-0 -0 -0 -0 -0 -0 -0 -0 -0 -0 -0 -0 -0 -0 -0 -0 -0 -0 -0 -0 -822 -706 -598 -382 -326 -335 -252 -226 -283 -269 -243 -100 -135 -109 -97 -155 -168 -170 -137 -115 -136 -0 -0 -0 -12 -18 -11 -7 -0
-0 -0 -0 -0 -0 -0 -0 -0 -0 -0 -0 -0 -0 -0 -0 -0 -0 -0 -0 -0 -733 -692 -556 -445 -433 -337 -287 -245 -134 -74 -70 -81 -0 -0 -0 -0 -0 -0 -0 -0 -0 -0 -0 -0 -0 -2 -1 -0 -8
-0 -0 -0 -0 -0 -0 -0 -0 -0 -0 -0 -0 -0 -0 -0 -0 -0 -0 -0 -0 -760 -714 -571 -487 -373 -267 -234 -149 -96 -119 -15 -0 -0 -0 -0 -0 -0 -0 -0 -0 -0 -0 -0 -0 -0 -0 -0 -0 -1
-0 -0 -0 -0 -0 -0 -0 -0 -0 -0 -0 -0 -0 -0 -0 -0 -0 -0 -0 -0 -0 -713 -514 -376 -256 -214 -237 -165 -90 -0 -0 -0 -0 -0 -0 -0 -0 -0 -0 -0 -0 -0 -0 -0 -0 -0 -0 -0 -0
-0 -0 -0 -0 -0 -0 -0 -0 -0 -0 -0 -0 -0 -0 -0 -0 -0 -0 -0 -0 -431 -526 -379 -266 -172 -193 -142 -0 -0 -0 -0 -0 -0 -0 -0 -0 -0 -0 -0 -0 -0 -0 -0 -0 -0 -0 -0 -0 -0
-0 -0 -0 -0 -0 -0 -0 -0 -0 -0 -0 -0 -0 -0 -0 -0 -0 -0 -0 -545 -428 -313 -270 -227 -191 -0 -0 -0 -0 -0 -0 -0 -0 -0 -0 -0 -0 -0 -0 -0 -0 -0 -0 -0 -0 -0 -0 -0 -0
-0 -0 -0 -0 -0 -0 -0 -0 -0 -0 -0 -0 -0 -0 -0 -0 -0 -0 -0 -0 -0 -0 -0 -0 -0 -0 -0 -0 -0 -0 -0 -0 -0 -0 -0 -0 -0 -0 -0 -0 -0 -0 -0 -0 -0 -0 -0 -0 -0
-0 -0 -0 -0 -0 -0 -0 -0 -0 -0 -0 -0 -0 -0 -0 -0 -0 -0 -0 -0 -0 -0 -0 -0 -0 -0 -0 -0 -0 -0 -0 -0 -0 -0 -0 -0 -0 -0 -0 -0 -0 -0 -0 -0 -0 -0 -0 -0 -0
-0 -0 -0 -0 -0 -0 -0 -0 -0 -0 -0 -0 -0 -0 -0 -0 -0 -0 -0 -0 -0 -0 -0 -0 -0 -0 -0 -0 -0 -0 -0 -0 -0 -0 -0 -0 -0 -0 -0 -0 -0 -0 -0 -0 -0 -0 -0 -0 -0
-0 -0 -0 -0 -0 -0 -0 -0 -0 -0 -0 -0 -0 -0 -0 -0 -0 -0 -0 -0 -0 -0 -0 -0 -0 -0 -0 -0 -0 -0 -0 -0 -0 -0 -0 -0 -0 -0 -0 -0 -0 -0 -0 -0 -0 -0 -0 -0 -0
Wind_Speed
14 12 12 12 11 11 9 11 13 12 13 13 13 14 13 15 15 16 14 16 17 19 20 20 17 17 17 16 15 16 16 18 18 19 19 19 18 19 19 19 19 19 19 19 19 19 19 19 19
13 11 12 11 11 10 9 11 11 13 13 13 14 15 15 16 15 13 15 17 17 18 18 17 17 17 16 17 18 18 19 19 18 17 17 17 17 17 17 17 17 17 17 17 17 17 17 17 17
11 11 5 11 11 10 10 12 13 10 10 13 15 16 16 14 15 18 14 16 17 17 18 18 18 18 21 21 19 19 18 17 16 15 15 15 16 16 16 16 16 16 15 15 15 15 15 15 15
12 11 11 12 14 10 12 14 13 13 14 15 16 16 16 14 17 15 16 16 18 18 18 18 19 20 20 19 17 16 15 14 14 13 13 14 14 14 15 15 15 15 15 15 15 15 15 15 14
11 18 20 17 20 17 16 16 19 20 14 15 16 15 14 12 14 14 16 17 19 18 18 18 19 19 18 16 15 14 14 13 13 12 12 12 12 12 13 14 14 15 15 15 15 16 15 15 14
18 18 21 20 18 17 15 15 18 19 15 14 16 14 9 3 17 16 15 17 14 15 13 13 15 16 15 14 13 14 12 11 10 10 10 11 11 11 12 13 14 15 15 16 16 16 16 15 14
18 19 20 19 18 13 13 14 15 16 15 15 14 14 14 14 18 14 12 11 10 10 12 11 12 12 13 12 12 12 10 9 9 9 9 9 10 10 11 12 13 14 15 16 16 16 16 16 14
15 17 17 19 17 17 15 15 16 16 16 14 13 15 15 20 9 8 8 7 7 8 10 11 10 12 12 10 10 9 9 9 8 8 8 8 9 9 10 12 13 13 14 15 16 17 16 15 14
15 14 9 16 16 18 17 16 16 16 14 13 15 16 16 10 8 6 6 7 7 8 9 10 12 11 9 9 9 8 9 8 7 7 7 7 8 9 10 13 13 13 13 13 14 15 15 14 13
12 15 14 19 19 19 19 18 18 18 17 19 17 17 13 8 8 11 12 12 10 9 9 10 9 8 7 7 7 7 7 7 6 6 6 6 8 9 11 12 13 13 13 14 15 15 15 15 14
12 14 17 21 21 21 21 21 21 20 21 21 21 16 10 6 8 8 9 11 10 9 8 8 6 5 7 6 5 5 5 5 5 5 5 6 7 9 10 12 14 15 14 15 16 17 17 16 15
15 12 22 23 20 24 26 24 24 25 24 23 21 14 7 5 8 8 6 6 10 9 8 7 7 7 8 6 6 4 4 4 4 4 4 5 7 8 10 12 13 14 14 15 15 16 16 17 16
13 19 19 28 30 31 29 31 30 29 28 26 21 12 6 4 4 3 5 6 5 6 7 6 7 8 9 7 5 4 3 3 3 3 3 5 7 8 10 12 14 16 16 16 16 17 17 17 17
17 22 30 28 30 29 31 33 26 29 29 20 15 13 8 1 4 1 1 4 5 5 4 5 8 9 9 7 6 4 3 3 2 3 3 4 7 10 11 14 14 16 16 17 18 18 18 18 17
22 27 28 24 22 22 22 28 33 27 16 19 25 22 17 8 4 6 7 7 6 3 4 7 8 8 8 7 7 6 5 4 3 3 4 4 6 10 12 15 16 17 17 17 19 19 19 20 20
24 23 25 19 22 20 18 27 25 22 14 17 16 19 16 5 7 8 7 4 1 1 5 5 6 6 6 6 6 5 5 5 5 6 7 9 11 13 15 17 18 18 19 20 20 21 21 21 20
21 23 22 24 18 21 22 26 18 22 18 16 17 19 18 12 4 8 8 6 3 4 3 4 5 6 5 4 4 4 5 6 8 8 10 12 13 14 17 19 19 19 20 19 20 21 20 20 20
18 21 22 23 20 25 28 28 24 23 20 25 28 28 25 20 8 2 5 4 4 5 5 6 6 6 4 1 2 4 6 8 10 11 12 13 15 15 17 18 19 20 21 21 21 20 20 19 19
18 21 24 26 24 25 25 30 28 29 27 28 33 33 22 4 16 14 16 14 6 6 8 8 8 6 4 2 2 6 7 10 13 13 13 14 16 17 18 21 22 21 22 21 19 20 19 18 16
16 25 29 28 20 21 26 36 34 26 25 25 27 29 31 23 21 15 19 20 14 9 8 8 8 7 6 4 4 9 10 13 14 14 14 15 16 18 20 23 23 24 25 24 20 18 20 19 14
17 19 13 30 28 24 31 32 22 21 25 21 18 22 23 20 17 16 17 16 12 8 6 7 8 8 7 5 5 9 11 14 14 14 14 15 18 21 23 24 26 26 25 24 22 20 20 22 17
22 16 19 26 27 29 24 32 28 26 31 28 23 22 21 22 20 19 17 13 9 7 4 4 6 7 6 4 5 6 9 12 12 14 16 18 21 23 25 27 28 27 26 25 23 21 21 20 21
17 16 19 21 23 29 25 20 23 27 32 30 18 16 19 20 18 17 15 13 10 6 3 2 3 4 5 4 4 6 10 11 13 16 19 20 24 25 27 28 28 27 25 24 23 23 22 21 20
15 18 22 23 23 16 15 10 28 20 17 17 15 18 19 18 17 15 13 11 8 5 4 1 2 3 3 3 5 6 9 12 17 20 22 24 26 27 27 27 25 26 26 26 25 23 21 19 18
16 20 26 27 25 30 17 16 10 28 13 19 25 27 23 19 16 14 11 9 7 4 3 2 1 2 2 2 4 7 11 14 17 20 23 26 28 28 28 28 27 28 26 24 22 21 20 19 20
15 16 19 30 34 38 26 22 30 20 24 27 28 27 23 20 17 12 10 9 8 6 4 4 3 3 3 4 8 10 12 16 20 22 24 26 28 29 31 31 29 27 25 23 22 22 21 20 20
19 20 22 28 32 41 29 30 30 19 20 22 24 26 24 19 14 10 10 10 9 7 6 5 5 7 8 9 11 13 17 21 22 24 26 29 30 33 31 30 29 27 26 24 23 23 22 21 21
21 17 24 25 35 39 28 33 24 25 19 17 24 22 23 22 17 15 15 13 11 9 8 9 10 10 11 13 15 17 20 22 24 27 29 30 32 31 31 31 30 29 27 25 25 24 22 23 23
22 24 25 28 25 36 49 34 15 17 16 21 25 27 27 25 22 17 16 15 13 13 13 13 13 14 15 17 18 20 22 24 26 28 29 30 32 33 34 34 33 30 28 26 26 24 24 24 24
26 27 25 28 30 31 37 44 25 19 19 19 25 31 29 26 23 20 19 17 16 16 17 17 18 18 18 18 20 22 23 25 26 30 32 34 37 36 36 35 34 32 29 27 25 25 23 22 21
Wind_Direction
329 340 334 329 24 12 1 22 32 20 25 309 7 357 19 342 324 321 62 87 82 106 114 117 112 111 109 104 97 93 89 89 88 86 81 78 71 72 69 66 62 60 56 52 51 48 51 54 57
322 329 319 345 27 35 9 350 358 15 337 39 6 3 332 328 324 22 59 88 85 100 108 112 112 112 108 108 107 104 102 100 93 86 81 72 69 69 65 58 58 51 46 48 40 37 37 45 50
325 310 36 27 20 8 358 326 315 356 360 289 334 349 347 326 44 87 51 82 89 98 109 115 116 117 121 120 114 111 109 102 93 85 77 72 76 76 66 54 46 37 36 29 29 30 32 33 39
300 335 325 39 56 324 347 308 277 60 278 317 356 325 3 330 68 71 81 79 96 104 112 119 124 126 127 124 117 113 106 98 93 85 76 75 73 66 58 50 40 33 31 25 16 15 15 19 24
278 189 177 110 155 181 184 197 214 155 282 318 354 52 1 259 44 63 90 97 104 107 110 116 125 127 124 121 117 114 109 103 97 88 78 68 63 58 48 37 32 26 20 15 10 5 4 2 5
165 185 162 141 173 200 209 212 197 175 312 356 348 35 290 196 99 84 84 99 86 93 87 95 114 121 121 116 115 117 110 102 91 79 72 64 57 46 33 27 23 17 12 7 4 2 0 0 4
180 143 142 183 188 233 260 232 238 257 304 308 13 235 251 217 112 72 63 60 62 63 81 83 101 110 115 114 114 113 105 97 88 80 71 61 53 40 30 23 13 7 2 359 358 355 355 356 0
243 224 132 194 222 217 244 264 221 279 284 358 330 255 228 171 50 29 8 4 27 31 69 87 92 111 115 112 113 106 102 98 86 76 68 59 45 32 25 14 5 3 2 357 353 349 350 352 354
272 297 31 188 252 240 251 256 250 234 336 351 302 294 290 49 69 27 11 357 27 49 71 89 108 109 105 104 107 101 102 96 85 75 66 48 29 21 13 2 5 3 360 357 353 348 347 345 344
317 294 302 242 256 272 267 260 263 251 288 278 304 306 331 46 88 109 110 111 97 95 97 102 106 101 98 98 100 99 98 95 86 74 61 31 18 10 5 2 1 355 352 348 346 345 342 340 337
320 306 292 270 269 277 283 278 275 280 267 279 285 316 349 42 107 118 118 121 112 102 98 104 97 90 108 105 100 93 83 76 66 65 48 24 16 6 360 354 351 349 349 346 343 340 336 333 330
311 319 275 287 296 291 275 289 281 266 251 282 298 333 1 102 135 140 126 112 123 111 109 100 101 117 122 111 114 90 76 73 72 57 43 21 7 358 351 348 348 348 349 345 345 341 335 329 325
325 309 306 278 258 264 280 262 263 278 280 283 301 339 12 104 129 132 137 126 107 110 109 106 107 116 121 110 91 86 88 84 45 37 33 5 355 354 352 347 345 341 341 341 339 336 333 329 323
315 306 275 281 245 256 272 274 291 288 283 276 319 322 331 86 149 39 176 146 143 128 114 112 123 123 111 97 97 85 68 48 45 29 16 10 357 348 345 343 342 341 339 335 334 329 326 324 322
304 296 295 301 304 308 307 288 274 298 312 302 292 298 306 321 323 171 161 158 151 148 123 137 130 122 118 104 91 85 84 64 43 33 27 14 352 346 344 342 340 339 337 334 330 327 324 320 318
301 302 296 308 305 310 319 297 299 311 320 304 306 303 309 310 178 170 169 180 200 165 157 149 139 130 120 112 101 82 72 59 32 15 2 348 342 340 339 338 337 337 334 332 328 326 322 318 314
303 299 303 301 313 308 306 298 318 311 312 316 311 309 314 326 307 185 182 186 236 193 193 180 171 163 150 121 84 60 39 16 4 357 347 341 338 336 333 332 333 335 332 329 327 324 321 318 315
312 303 304 303 308 303 293 293 303 304 312 296 280 274 292 310 181 278 207 235 238 221 215 207 199 190 181 120 31 3 350 342 342 336 334 337 336 337 335 335 333 333 331 327 324 322 321 320 315
311 307 301 299 306 306 300 289 295 292 298 295 263 259 235 227 314 312 304 303 280 246 227 219 214 213 216 238 296 323 325 325 327 329 331 333 336 336 336 336 334 332 327 324 323 323 319 318 318
314 294 287 295 314 316 305 272 283 299 303 306 303 296 286 309 307 306 301 301 301 276 248 235 225 221 224 240 285 317 320 320 324 329 331 335 337 337 336 334 333 330 326 323 319 316 319 316 313
308 306 293 274 298 309 289 278 301 307 307 316 320 313 312 320 319 315 314 314 313 297 274 248 228 219 221 249 298 320 324 325 326 330 334 335 335 333 333 332 330 328 325 321 319 316 313 314 308
300 315 311 289 292 272 302 284 294 305 288 296 312 315 312 313 319 316 319 322 319 309 289 242 215 205 216 222 275 298 311 320 329 334 335 334 332 332 334 333 332 331 328 324 320 318 313 312 308
312 322 314 310 306 290 303 316 302 306 288 293 323 327 321 324 328 326 324 321 322 322 308 269 205 201 212 236 279 304 315 324 332 331 330 331 330 330 331 332 333 332 330 326 322 318 313 310 307
324 314 309 308 309 311 321 321 292 324 331 332 339 334 333 336 334 330 329 333 334 336 325 302 202 220 242 274 301 310 317 321 324 325 326 327 328 328 329 330 331 330 328 326 324 321 317 313 307
311 310 303 302 301 292 322 315 234 304 320 319 315 320 329 333 333 331 331 335 340 340 328 320 249 266 249 277 296 309 315 318 319 322 323 325 326 328 329 329 327 324 325 325 325 322 320 316 312
309 308 307 299 293 275 309 239 305 314 310 308 312 318 326 329 329 327 325 327 331 329 320 307 292 282 277 297 308 311 315 318 319 320 322 324 325 326 327 327 326 324 323 323 322 322 320 317 312
306 300 306 302 301 278 302 302 305 319 320 317 317 319 327 334 330 324 317 311 313 306 296 289 286 296 302 306 313 314 316 319 320 321 322 322 322 323 326 327 326 324 321 319 319 317 315 314 311
301 308 304 304 298 296 305 299 305 313 322 324 322 324 326 330 325 316 307 303 302 297 291 295 299 301 306 310 311 312 316 318 319 320 319 321 323 326 326 326 325 322 319 316 315 313 312 310 309
298 296 299 301 296 298 287 301 324 328 325 321 323 322 320 322 318 309 300 298 295 299 295 294 297 300 303 309 312 314 316 318 319 320 323 323 323 323 323 323 322 320 318 316 312 309 307 305 305
295 293 291 287 293 292 296 258 300 305 316 325 327 323 321 320 318 308 299 294 291 288 289 292 298 299 304 309 312 314 318 320 322 323 322 323 322 321 320 319 318 317 316 315 311 308 305 302 301